RH
29 28 28 28 27 27 26 25 25 24 24 24 24 23 23 23 23 22 22 22 22 22 21 21 21 21 22 22 22 23 23 24 24 24 24 24 23 23 23 22 21 19 18 17 16 15 15 14 14 14 14 14 13 13 13 13 13 13 12 12 13 13 12 12 11 10 10 11 12 12 12 12 11 11 10 10 11 10 11 11 11 11 10 11 10
27 27 27 27 27 27 27 27 26 26 26 26 26 26 27 27 27 27 27 28 28 29 29 28 28 28 28 27 27 26 26 26 26 25 24 23 22 21 20 19 18 17 16 15 14 14 13 13 13 13 13 13 13 13 13 13 12 12 12 12 11 11 11 11 10 9 8 9 10 10 11 11 10 9 9 9 9 9 9 9 9 9 8 9 9
31 30 30 30 30 29 29 29 28 28 27 27 27 27 27 28 28 28 28 28 29 29 29 28 28 27 27 25 24 23 23 22 21 20 19 18 17 16 16 15 14 14 14 14 13 13 13 13 12 13 13 12 12 12 12 12 11 11 11 11 11 10 10 9 8 8 7 7 8 8 9 9 9 8 8 8 8 8 8 8 8 9 8 8 8
31 30 29 28 27 27 26 26 25 24 24 23 23 23 23 23 23 23 24 24 24 24 23 23 23 22 21 20 20 19 18 17 16 16 15 15 14 14 14 13 13 13 13 13 13 13 12 12 12 12 12 11 11 11 11 10 10 10 10 9 9 9 9 9 8 7 7 6 7 7 8 8 8 8 8 8 9 8 8 9 8 8 8 8 9
27 26 26 25 24 24 23 23 22 22 21 20 20 19 18 18 17 17 17 17 17 17 17 17 17 17 17 16 16 16 16 16 15 15 15 14 14 14 13 13 13 12 12 12 12 11 11 11 11 10 10 10 10 9 9 9 8 8 9 8 8 8 8 8 8 8 8 7 7 7 7 7 7 8 8 8 8 8 8 8 8 8 8 7 8
22 22 21 20 21 20 20 20 19 18 18 17 17 16 16 16 15 15 14 14 14 14 14 14 14 14 14 14 14 15 14 15 14 14 14 13 13 13 12 12 11 11 11 10 10 10 9 9 9 9 9 9 9 9 9 9 9 9 9 9 8 8 8 8 8 8 7 7 7 7 7 7 7 7 7 7 7 7 7 7 7 7 6 6 6
18 18 18 17 17 17 17 18 18 18 18 17 17 17 16 16 16 16 15 14 14 14 13 13 13 13 13 12 12 12 12 13 12 12 12 11 11 11 10 10 10 9 10 9 9 9 9 9 10 9 10 10 9 9 9 9 9 9 9 8 8 8 8 7 7 7 7 6 6 6 6 6 6 6 6 6 6 6 6 6 6 6 6 6 5
17 17 17 17 17 17 17 17 17 17 17 17 17 16 15 15 15 14 14 13 12 12 11 11 10 10 10 10 10 10 10 10 10 10 10 10 9 9 9 9 9 9 9 9 9 9 9 10 10 10 10 10 9 9 9 9 8 8 8 8 8 8 7 7 7 6 6 6 5 5 5 5 5 5 5 6 6 6 6 5 5 5 5 5 5
16 15 15 15 15 15 14 14 14 14 14 14 13 13 12 12 11 11 11 11 10 10 10 10 10 9 9 9 9 9 10 10 10 10 10 10 10 9 9 9 9 9 9 9 9 9 9 9 9 10 9 9 9 8 8 8 8 8 8 8 8 8 7 7 7 6 6 6 5 5 5 4 4 4 4 5 5 5 5 4 4 4 3 4 4
13 13 13 13 12 12 12 12 12 12 12 12 11 11 11 11 11 11 10 11 11 11 11 11 11 11 11 11 11 11 11 11 10 10 10 10 10 9 9 9 9 9 9 9 9 9 9 9 9 9 9 8 8 8 8 8 8 8 7 7 7 7 6 6 6 6 5 5 5 4 4 4 4 4 4 4 4 4 4 4 3 3 3 3 3
12 12 12 12 12 12 11 12 12 11 12 12 12 12 12 12 12 12 12 12 11 11 11 11 11 10 10 10 10 10 11 10 10 10 10 10 9 9 9 9 9 9 9 9 9 9 9 9 8 8 8 7 7 7 7 6 6 6 6 6 6 5 5 5 4 5 5 4 4 4 4 4 3 4 4 4 4 4 4 3 3 3 3 3 3
13 12 12 13 13 13 13 13 12 12 12 12 12 12 12 12 12 12 12 12 11 11 11 11 11 10 10 10 10 10 10 10 10 9 9 9 8 8 8 8 8 8 8 7 7 7 7 7 7 7 6 6 6 5 6 5 5 5 5 5 5 4 4 4 4 4 4 4 4 4 4 4 4 4 4 3 4 3 3 3 3 3 3 3 3
13 13 13 13 12 13 13 12 12 11 11 11 11 11 10 10 10 10 10 10 10 10 10 10 10 9 9 9 9 9 9 8 8 7 7 7 6 6 5 5 6 5 5 6 5 5 6 5 5 6 5 5 5 5 5 5 5 5 5 4 4 4 4 4 4 4 4 4 4 3 4 4 3 3 3 3 3 3 3 3 3 2 3 2 2
13 12 12 12 12 12 11 11 10 10 10 10 9 9 9 9 9 9 9 9 9 9 8 8 8 8 8 7 7 7 7 6 6 6 5 5 5 4 4 4 4 4 4 4 4 4 5 4 4 5 5 5 5 5 5 5 5 5 4 4 4 4 4 4 3 4 3 3 3 3 3 3 3 3 3 3 3 3 2 3 2 2 3 2 2
11 10 11 11 11 11 10 10 10 9 9 9 9 9 9 8 8 8 7 7 7 7 7 6 6 6 6 5 5 5 5 5 5 5 5 5 4 4 4 4 4 4 4 4 4 4 4 4 4 4 4 4 4 4 4 4 4 4 4 3 4 3 3 4 3 3 3 3 3 3 3 3 3 3 3 3 3 3 3 3 2 2 2 2 3
10 9 9 9 9 9 9 9 9 8 8 8 7 7 7 6 6 6 5 5 5 5 5 4 4 4 4 4 4 4 4 4 4 4 4 4 4 4 4 4 4 4 4 4 4 4 4 4 4 4 4 4 4 4 4 4 4 4 3 3 3 3 3 4 4 4 4 3 3 3 3 3 3 3 3 3 3 2 3 3 2 3 2 2 2
9 9 9 8 8 7 7 7 6 6 6 6 5 5 5 4 5 4 4 4 4 4 4 4 4 4 4 4 4 4 4 4 4 4 4 4 4 3 3 3 3 3 3 3 3 3 3 3 3 3 4 4 4 4 4 4 3 3 3 3 3 4 4 4 4 4 4 4 3 3 3 3 3 3 3 3 3 3 3 2 2 2 2 2 2
9 8 8 7 6 6 5 5 5 5 5 5 4 4 4 4 4 4 4 4 4 4 4 4 4 4 4 4 4 4 4 4 4 4 4 3 3 3 3 3 3 3 3 3 3 3 3 3 3 3 3 3 4 4 4 4 3 3 3 3 3 4 4 4 4 3 4 4 4 3 3 3 3 3 3 2 2 2 2 2 2 2 2 2 2
8 7 7 7 6 6 5 5 5 4 4 4 4 4 4 4 4 4 4 4 4 4 4 4 4 4 4 4 4 4 4 4 4 4 3 4 3 3 3 3 3 3 3 3 3 3 3 4 3 3 3 3 3 4 4 3 3 3 3 3 3 4 3 3 3 4 4 4 4 3 3 3 3 2 2 2 2 2 2 2 2 2 2 2 2
7 6 6 6 5 5 4 4 4 4 4 4 4 4 4 4 4 4 3 4 4 3 4 4 3 4 4 3 3 4 3 3 4 3 3 3 3 3 3 3 3 3 3 3 3 3 3 3 3 3 3 3 3 3 3 3 3 3 3 3 3 3 3 3 4 4 4 4 3 4 3 3 3 2 2 2 2 2 2 2 2 2 2 2 3
5 5 4 4 4 4 4 4 4 4 4 4 3 3 3 3 3 3 3 3 3 3 3 3 3 3 4 4 3 3 3 3 3 3 3 3 3 3 3 3 3 3 3 3 3 3 4 3 3 4 3 3 4 3 3 3 3 3 3 3 3 3 3 3 4 4 4 4 3 4 3 3 3 2 2 2 2 2 2 2 2 2 2 2 2
4 4 4 4 4 4 4 4 4 3 3 3 3 3 3 3 3 3 3 3 3 3 3 3 3 3 3 4 3 3 3 3 3 3 3 3 3 3 3 3 3 3 3 3 3 3 4 3 3 4 4 4 4 3 3 3 3 3 3 3 3 3 3 4 4 4 4 4 4 4 4 3 3 3 3 3 2 3 2 2 2 2 2 2 2
5 4 4 4 4 3 4 3 3 3 3 3 3 3 3 3 3 3 3 3 3 3 3 3 3 3 3 3 3 3 3 3 3 4 3 3 3 3 3 3 3 3 3 4 4 3 3 3 4 4 4 4 4 3 4 4 3 3 3 3 3 3 3 4 4 4 4 4 4 4 3 3 3 3 3 3 3 3 3 3 3 3 2 3 3
4 4 4 4 3 3 3 3 3 3 3 3 3 3 3 3 3 3 3 3 3 3 3 3 3 3 3 3 3 3 3 3 3 3 3 3 3 3 3 3 3 3 3 3 3 3 3 3 4 3 3 4 4 4 4 3 3 3 3 3 4 3 4 4 4 4 4 4 4 3 3 3 3 3 3 3 3 3 3 3 3 3 3 3 3
3 3 3 3 3 3 3 3 3 3 3 3 3 3 3 3 3 3 3 3 3 3 3 3 3 3 3 3 3 3 3 3 3 3 3 3 3 3 3 3 3 3 3 3 3 3 3 3 3 3 4 4 3 4 3 3 3 3 3 3 4 3 4 4 3 4 4 3 4 3 3 3 3 3 3 3 3 3 3 3 3 3 3 3 3
3 3 3 3 3 3 3 3 3 3 3 3 3 3 3 3 3 3 3 3 3 3 3 3 3 3 3 3 3 3 3 3 3 3 3 3 3 3 3 3 3 3 3 3 3 3 3 3 3 3 3 4 3 3 3 3 3 3 3 3 3 3 3 3 3 4 3 3 3 3 3 3 3 3 3 3 3 3 3 3 3 3 3 3 3
3 3 3 3 3 3 3 3 3 3 2 3 3 3 3 3 3 3 3 3 3 3 3 3 3 3 3 3 3 3 3 3 3 3 3 3 3 3 3 3 3 3 3 3 3 3 3 3 3 4 3 3 3 3 3 3 3 3 3 3 4 4 3 3 3 3 3 3 3 3 3 3 3 3 3 3 3 3 3 3 3 3 3 3 3
3 3 3 3 3 3 3 3 3 3 2 3 3 3 2 2 3 2 2 3 3 3 3 3 3 3 3 3 3 3 3 3 3 3 3 3 3 3 3 3 3 3 3 3 3 3 4 3 4 4 3 3 4 3 3 3 3 3 4 3 4 4 3 3 3 3 3 3 3 3 3 3 3 3 3 3 3 3 3 3 3 3 3 3 3
3 3 3 3 3 2 3 3 2 2 3 2 2 2 2 2 2 2 2 2 2 2 3 2 3 3 3 3 3 3 3 3 3 3 3 3 3 3 3 3 3 3 3 4 3 3 4 4 4 4 3 3 4 3 3 4 3 4 4 3 4 4 3 3 3 3 3 3 3 3 3 3 4 3 3 3 3 3 3 3 3 3 3 3 3
3 3 2 3 2 2 2 3 2 2 2 2 2 2 2 2 2 2 2 2 2 2 3 3 3 3 3 3 3 3 3 3 2 2 3 3 3 3 3 3 3 3 3 3 3 3 3 3 3 3 3 3 4 3 4 4 3 4 4 3 3 3 3 4 4 3 4 4 3 3 3 3 3 3 3 3 3 3 3 3 3 3 3 3 3
3 3 3 2 2 3 2 2 2 2 2 2 2 2 2 2 2 2 2 2 2 2 2 3 3 3 3 3 3 3 3 3 3 3 3 3 3 3 3 3 3 3 3 3 3 3 3 3 3 3 3 3 3 3 3 3 3 3 3 3 3 3 3 3 3 3 4 4 3 3 3 4 4 3 3 4 3 3 4 3 3 3 3 3 3
3 3 3 2 2 3 2 2 3 2 2 3 3 3 3 3 2 3 2 2 2 3 3 3 3 3 3 3 3 3 2 2 3 3 3 3 3 3 3 3 3 3 4 4 3 3 3 3 3 3 3 3 3 3 4 3 3 3 3 3 3 3 3 3 3 3 3 3 3 4 3 3 4 3 3 4 3 3 4 3 3 3 3 3 3
2 3 3 2 2 3 2 3 3 2 3 3 3 3 3 3 3 3 3 2 3 3 3 3 3 3 3 3 3 3 3 3 3 3 3 3 3 3 3 3 3 4 4 4 4 3 3 3 3 3 3 4 3 4 4 4 3 3 3 3 3 3 3 3 3 3 3 3 3 3 4 4 4 3 4 4 4 4 3 3 3 3 3 3 3
2 3 3 2 3 3 3 3 3 3 3 3 3 3 3 3 3 3 3 3 3 3 3 3 3 3 3 3 3 3 3 3 3 3 3 3 3 3 3 3 4 4 4 4 4 4 3 4 4 3 4 4 4 4 4 4 4 4 3 3 4 4 4 4 3 3 3 3 4 3 3 3 3 3 4 4 3 4 4 3 3 3 3 4 4
3 3 3 3 3 3 3 3 3 3 3 3 3 3 3 3 3 3 3 3 3 3 3 3 3 3 3 3 3 3 3 3 3 3 3 3 3 3 3 4 4 4 4 4 4 4 4 4 4 4 4 4 4 4 4 4 4 4 4 4 4 4 4 4 4 4 4 4 4 4 3 4 3 3 4 4 4 4 4 4 4 3 3 4 3
3 3 3 3 3 3 3 3 3 3 3 3 3 3 3 3 3 3 3 3 3 3 3 3 3 3 3 3 3 3 3 3 3 3 3 3 3 3 4 4 4 4 4 4 4 4 4 4 4 4 4 4 4 4 4 4 4 4 4 4 4 4 4 4 4 4 4 4 4 4 3 4 3 3 4 4 4 4 4 4 4 3 3 4 4
3 3 3 3 3 3 3 3 3 3 3 3 3 3 3 3 3 3 3 3 3 3 3 3 3 3 3 3 3 3 3 3 3 3 3 3 3 4 4 4 4 4 4 4 4 4 4 4 4 4 4 4 4 4 4 4 4 4 4 4 4 4 4 4 4 4 4 4 4 4 4 4 4 4 4 4 4 4 4 4 4 4 4 4 4
3 3 3 3 3 3 3 3 3 3 3 3 3 3 3 3 3 3 3 3 3 3 3 3 3 3 3 3 3 3 3 3 3 3 3 3 3 4 4 4 4 4 4 4 4 4 4 4 4 4 4 4 4 4 4 4 4 4 4 4 4 4 4 4 4 4 4 4 4 4 4 4 4 4 4 4 4 4 4 4 4 4 4 4 4
3 3 3 3 3 3 3 3 3 3 3 3 3 3 3 3 3 3 3 3 3 3 3 3 3 3 3 3 3 3 3 3 3 3 3 3 4 4 4 4 4 3 4 4 4 4 4 4 4 4 4 4 4 4 4 4 4 5 5 5 4 4 5 4 4 4 4 4 4 4 4 4 4 4 4 4 4 4 4 4 4 4 4 4 4
3 3 3 3 3 3 3 3 3 3 3 3 3 3 3 3 3 3 3 3 3 3 3 3 3 3 3 3 3 3 3 3 3 3 3 3 4 4 4 4 4 4 4 4 4 4 4 4 4 4 4 4 4 5 5 5 4 4 5 5 5 4 4 4 5 5 5 4 4 4 4 4 4 4 4 4 4 4 4 4 4 4 4 4 4
3 3 3 3 3 3 3 3 3 3 3 3 3 3 3 3 3 3 3 3 3 3 3 3 3 3 3 3 3 3 3 3 4 4 3 4 4 4 4 4 4 4 4 4 4 4 4 4 4 4 4 4 4 4 5 5 5 5 5 5 5 5 5 5 5 5 5 5 4 4 4 4 4 5 4 4 5 4 4 4 4 4 4 4 4
3 3 3 3 3 3 3 3 3 3 3 3 3 3 3 3 3 3 3 3 3 3 3 3 3 3 3 3 3 4 4 3 4 4 3 4 4 4 4 4 4 4 4 4 4 5 4 4 5 4 4 4 4 5 5 5 5 5 5 5 5 5 5 5 5 5 5 5 5 4 5 5 5 5 5 5 5 4 4 4 4 4 5 5 5
3 3 3 3 3 3 3 3 3 3 3 3 3 3 3 3 3 3 3 3 3 3 3 4 3 3 4 3 3 4 4 4 4 4 4 4 4 4 4 4 4 4 4 4 4 5 5 5 5 4 5 5 5 5 5 5 5 5 5 5 5 5 5 5 5 5 5 5 5 5 5 5 5 5 5 5 5 5 4 5 5 5 5 5 5
3 3 3 3 4 3 3 4 3 3 3 3 3 3 3 3 3 3 3 3 4 3 3 4 4 4 4 4 4 4 4 4 4 4 4 4 4 4 5 5 5 5 5 4 5 5 5 5 5 5 5 5 5 5 6 6 5 6 6 5 5 6 5 6 6 5 5 5 5 5 6 5 5 6 5 5 5 5 5 5 5 5 5 6 5
3 4 3 4 4 3 3 4 3 3 3 3 3 3 3 3 3 3 3 4 4 3 4 4 4 4 4 4 4 4 4 4 5 4 4 5 5 5 5 5 5 5 5 5 5 5 5 5 5 5 5 6 6 6 6 6 6 6 6 6 6 6 6 6 6 6 6 6 6 6 6 6 5 6 5 5 5 5 5 5 6 6 6 6 6
4 4 4 4 4 4 4 4 3 4 4 3 3 4 3 3 4 4 3 4 4 4 4 4 4 4 4 4 4 5 5 5 5 5 5 5 5 5 5 5 5 5 6 5 5 5 5 5 6 6 6 6 6 6 6 6 6 6 6 6 6 6 6 6 6 6 6 6 6 6 6 6 6 6 6 5 6 6 6 6 6 6 6 7 6
4 4 4 4 4 4 4 4 4 4 4 4 4 4 4 4 4 4 4 4 4 4 4 4 4 5 5 4 5 5 5 5 5 5 5 6 6 5 6 6 6 6 6 6 6 6 6 6 6 6 7 7 7 7 7 7 7 7 7 7 7 7 6 7 7 6 6 6 6 6 6 6 6 6 6 6 6 6 6 7 7 7 7 7 7
4 4 4 4 4 4 4 4 4 4 4 4 4 4 4 4 4 4 4 4 4 5 5 5 5 5 5 5 5 5 5 5 6 6 6 6 6 6 6 6 6 6 6 6 7 6 6 7 7 7 7 7 7 7 7 7 7 7 7 7 7 7 7 7 7 7 7 7 7 6 7 6 6 7 7 7 7 7 7 8 8 7 7 7 7
4 4 4 4 4 4 4 4 4 4 4 4 4 4 4 4 5 5 5 5 5 5 5 5 5 5 5 5 5 5 6 6 6 6 6 6 6 6 7 6 7 7 7 7 7 7 7 7 8 7 8 8 7 7 7 7 7 7 7 7 7 7 7 7 7 7 7 7 7 7 7 7 7 7 7 7 8 8 8 8 8 8 8 8 7
5 5 5 5 5 5 5 4 4 5 4 4 5 5 5 5 5 5 5 5 5 5 5 5 6 6 6 6 6 6 6 6 6 7 7 7 7 7 7 7 7 8 8 8 8 7 7 8 8 8 8 8 7 7 8 8 7 8 8 8 8 8 7 7 7 7 7 7 7 7 8 8 8 8 8 8 8 8 8 8 8 8 8 8 8
5 5 5 5 5 5 5 5 5 5 5 5 5 5 5 5 5 6 6 6 6 6 6 6 6 6 6 6 6 7 7 7 7 7 7 7 7 7 7 8 8 8 8 8 8 8 8 8 8 8 8 8 8 8 8 8 8 8 8 8 8 8 7 8 8 8 8 8 8 8 9 9 9 9 9 9 9 9 8 8 8 8 8 8 8
Wind_Speed
123 124 124 125 126 127 128 128 129 129 129 130 130 131 132 133 133 134 134 134 135 136 136 136 136 137 137 137 137 138 138 138 138 138 139 139 139 139 139 139 139 138 138 137 136 135 134 133 133 132 132 132 131 130 130 130 130 130 129 129 129 130 130 130 129 126 122 120 120 121 123 125 126 125 125 125 125 125 126 125 125 125 125 125 126
121 122 123 124 124 125 126 127 127 128 128 128 129 129 130 130 131 132 132 132 133 134 134 135 135 136 136 136 137 137 137 137 138 138 138 138 138 138 138 138 137 137 136 136 135 135 134 133 132 132 132 132 131 130 130 130 130 130 130 130 130 130 130 131 130 128 125 121 121 121 122 125 126 126 125 126 127 126 126 126 126 125 125 125 125
120 121 122 123 123 124 125 126 127 127 127 127 128 128 129 129 130 131 131 131 132 133 133 134 134 135 135 136 136 136 136 137 137 137 137 136 136 136 136 136 135 135 135 135 135 135 134 134 133 133 133 133 132 131 131 131 131 131 131 131 131 131 131 131 131 130 127 123 121 120 121 123 125 125 125 125 127 127 126 126 126 125 125 125 125
119 120 121 122 123 124 124 125 126 126 126 127 127 127 128 128 128 129 130 130 130 131 131 132 133 134 134 135 135 135 135 136 136 136 136 136 136 136 136 136 135 135 135 135 135 135 135 135 135 135 135 134 133 132 132 132 131 131 131 131 131 131 131 131 131 130 128 125 122 120 119 121 122 124 124 124 125 126 125 125 125 125 125 125 124
119 119 120 121 121 122 123 124 124 125 125 126 126 126 127 127 128 128 128 129 129 130 130 130 131 132 132 133 134 134 134 135 135 136 136 136 136 136 136 136 136 136 136 136 136 136 135 135 135 135 135 134 133 133 132 132 131 131 131 130 130 130 129 129 129 129 128 126 123 121 120 120 121 122 123 123 124 124 124 124 125 125 125 124 124
117 118 118 119 120 120 121 122 123 123 124 125 125 126 126 127 128 128 128 129 129 129 129 130 130 131 132 132 133 134 134 135 135 136 136 137 137 137 136 136 136 136 136 135 135 135 135 134 134 134 134 133 133 132 132 131 131 131 130 129 129 129 129 128 128 128 127 126 124 122 121 120 120 122 123 124 123 123 123 123 124 125 125 124 123
115 116 117 118 118 119 120 121 122 123 124 125 125 126 126 127 128 129 129 130 130 130 131 131 131 132 132 133 133 134 134 135 135 136 136 137 137 136 136 136 136 135 135 134 134 134 134 133 133 133 133 133 133 132 132 131 131 130 130 129 129 129 128 128 127 127 126 125 124 122 121 120 120 121 122 123 123 123 123 124 124 124 124 124 123
115 116 116 117 118 119 119 120 121 122 124 125 126 127 127 127 128 129 130 130 130 131 131 131 131 132 132 132 132 133 133 133 134 135 135 135 135 135 135 134 134 134 133 133 133 133 133 132 132 132 132 132 132 132 131 131 130 130 129 129 129 129 128 128 127 126 126 124 123 122 122 121 120 120 121 122 123 123 123 125 124 123 122 123 123
115 116 117 118 118 119 120 120 121 122 124 125 126 127 127 128 128 129 129 130 130 131 131 131 131 131 131 132 132 132 132 133 133 134 134 135 135 134 134 134 134 133 133 133 133 133 132 132 132 132 133 133 132 132 131 130 130 130 129 129 130 130 129 128 128 127 126 125 124 123 123 122 121 121 121 122 123 124 123 124 124 122 121 121 121
115 116 117 118 119 120 120 121 122 123 124 125 126 127 128 128 129 129 130 130 130 131 131 131 131 132 132 132 133 133 133 134 134 135 135 135 135 135 135 134 134 134 133 133 133 133 133 133 133 133 133 133 132 132 131 131 131 130 130 130 130 130 130 129 127 127 126 125 124 124 123 122 121 120 121 121 122 123 121 121 121 121 120 119 119
115 116 117 118 119 120 120 121 122 123 124 125 126 127 128 129 129 130 131 131 131 132 132 132 132 132 132 133 133 133 134 135 135 136 136 136 136 136 135 134 134 134 133 133 133 133 133 133 134 134 133 132 132 131 131 131 130 130 129 129 129 129 129 127 126 124 124 124 123 123 122 121 119 118 119 119 120 120 119 118 118 118 118 117 117
115 116 117 118 119 119 121 122 123 123 124 125 126 127 128 128 129 130 130 131 132 132 132 133 133 133 133 133 133 133 134 134 135 135 136 136 136 135 135 134 133 133 133 133 133 133 133 133 133 132 132 132 131 130 130 129 128 128 128 127 127 127 126 125 123 121 120 120 120 119 119 119 118 116 116 116 117 118 117 116 115 115 115 115 114
116 117 117 118 119 120 121 122 123 124 124 125 126 126 127 128 128 129 129 129 130 131 131 131 132 132 132 132 132 133 133 134 134 135 135 135 134 134 133 131 130 130 130 131 131 131 130 130 130 130 129 129 128 128 128 127 126 126 125 125 124 123 122 121 120 119 118 117 117 116 116 116 116 114 114 115 116 116 115 113 111 111 112 111 110
116 117 118 118 119 121 122 122 123 124 124 125 125 125 126 126 127 127 127 128 128 129 129 130 130 130 131 131 131 131 132 133 133 134 134 134 133 133 131 129 128 127 127 127 127 127 127 127 126 126 125 125 125 125 125 124 124 124 123 122 121 120 119 118 117 117 116 115 114 113 112 112 113 112 111 112 113 113 112 110 108 107 108 107 107
116 117 117 118 119 120 121 122 122 123 124 124 125 125 126 126 126 127 127 127 127 127 128 128 128 128 128 128 128 128 129 130 130 131 131 131 130 130 128 127 126 125 125 124 125 124 124 124 123 122 122 121 121 121 122 122 122 121 120 118 117 116 115 114 114 114 113 113 112 111 110 109 110 109 108 109 110 110 109 107 105 104 104 104 103
117 117 118 119 119 120 120 121 121 122 123 123 124 124 124 124 124 125 124 124 124 124 124 124 124 124 124 124 124 124 124 125 126 126 126 126 126 125 124 123 122 121 121 121 121 121 121 120 119 119 118 117 117 118 119 120 119 118 116 114 113 113 111 111 111 112 112 112 111 110 109 108 107 107 106 106 107 107 107 104 102 101 101 100 99
118 118 119 119 119 119 119 119 120 120 120 121 121 121 121 121 121 121 121 121 120 121 121 120 120 120 120 120 120 120 121 122 122 123 123 123 122 121 120 118 118 117 117 117 117 117 117 116 116 115 114 113 113 115 117 117 116 114 112 110 109 108 108 108 109 109 109 109 109 108 107 106 106 105 104 103 104 104 104 101 98 98 98 96 95
118 118 119 119 119 119 119 119 119 119 119 119 119 119 119 119 119 119 119 119 119 119 119 118 118 118 118 118 118 118 119 119 120 120 120 121 120 118 117 115 115 114 114 114 114 114 114 113 113 112 111 110 110 111 113 113 113 111 108 105 103 104 105 106 106 106 105 106 106 106 105 104 104 103 102 102 101 101 101 98 94 93 92 91 91
118 119 119 120 120 119 119 119 118 118 118 117 117 117 117 117 117 117 117 116 116 116 116 116 116 116 116 116 116 116 116 117 118 118 118 119 118 117 114 113 112 112 112 112 111 111 111 111 111 110 109 108 107 108 109 111 110 107 103 100 100 102 102 102 101 101 102 102 102 103 102 102 101 100 99 99 99 99 97 94 91 88 86 86 86
118 118 119 119 118 117 117 116 116 116 115 115 114 114 114 114 114 114 113 113 113 113 113 113 113 113 114 114 114 114 114 114 115 115 115 116 116 114 112 110 110 109 109 108 108 109 109 109 108 107 106 105 104 105 107 108 106 103 99 99 100 99 98 97 97 98 98 98 98 99 99 99 99 98 97 96 95 95 94 92 88 85 83 82 82
116 116 115 115 115 114 114 114 113 113 113 112 112 111 111 111 111 110 110 110 110 110 110 110 110 110 110 111 111 111 111 111 111 112 112 112 112 111 109 107 106 106 105 105 105 106 106 106 105 104 104 103 102 102 104 104 102 99 98 99 98 96 94 94 95 95 95 94 94 95 96 97 97 96 94 92 92 92 91 88 85 83 81 80 78
114 113 113 113 112 112 111 111 111 110 110 109 109 108 108 108 107 107 107 107 106 106 106 106 106 106 106 107 107 107 107 107 108 108 108 109 108 108 106 104 103 103 102 102 103 103 103 102 102 101 101 100 99 100 100 100 99 98 97 96 94 93 92 92 92 93 92 92 92 92 93 94 93 92 91 90 89 89 88 85 83 82 80 78 76
111 111 110 110 109 108 108 107 107 107 106 106 105 105 105 105 104 104 103 103 103 103 103 103 102 102 103 103 104 104 104 104 104 105 105 105 105 105 103 102 101 100 99 99 101 101 100 99 98 98 98 97 97 97 97 97 97 96 95 93 92 91 90 90 89 90 90 90 90 90 90 90 89 88 88 88 87 86 85 83 82 81 79 76 76
107 107 106 106 105 105 104 104 103 103 103 102 102 102 102 101 101 100 100 100 99 99 99 99 99 99 99 100 100 100 100 100 101 101 101 100 100 101 100 99 98 97 96 97 98 97 96 96 96 96 95 95 94 94 94 95 94 93 92 91 89 88 88 87 87 87 87 88 87 87 86 86 85 84 84 84 84 84 83 81 80 79 77 75 75
103 103 103 102 102 101 101 101 100 100 99 99 99 99 99 98 97 97 97 97 96 96 95 95 95 95 96 96 96 97 97 97 97 97 96 96 96 96 97 96 96 94 93 94 94 94 93 93 93 92 92 92 91 92 92 92 91 90 88 87 86 86 85 85 84 84 85 85 84 83 83 82 82 81 80 81 81 81 80 79 78 77 75 74 74
99 99 99 99 98 97 97 97 97 96 96 95 95 95 95 94 94 93 93 93 92 92 92 92 92 92 92 92 93 93 94 94 93 93 93 92 92 93 93 93 93 92 91 90 90 90 89 89 89 89 89 89 88 88 88 88 87 86 84 84 83 83 82 82 81 81 81 81 80 80 79 79 78 77 77 77 78 78 77 76 75 74 73 72 72
96 96 95 95 95 94 94 93 93 92 92 91 91 91 91 90 90 90 89 89 89 89 88 88 88 88 88 89 89 90 90 90 90 89 89 89 89 89 89 89 90 89 88 87 86 86 85 85 85 86 86 86 85 85 85 84 83 82 81 80 79 79 79 79 78 78 77 77 76 76 75 75 74 74 74 75 75 75 74 73 72 72 71 70 70
93 93 92 92 91 91 90 90 89 89 88 88 88 87 87 87 86 86 85 85 85 85 85 85 84 84 84 85 86 86 87 87 86 85 85 86 86 86 85 85 86 85 84 84 83 82 80 81 82 83 83 83 82 82 81 80 79 78 77 77 76 75 75 75 75 75 74 73 72 72 72 71 71 71 72 72 73 72 71 70 70 69 68 67 67
89 89 89 88 88 87 87 87 86 85 85 85 85 84 84 83 83 82 82 81 81 81 81 81 81 81 81 81 82 83 83 84 83 81 82 82 83 82 82 81 81 81 81 81 80 78 77 78 79 80 80 79 79 78 77 76 75 75 74 74 73 72 72 72 72 72 71 70 69 68 68 68 69 69 70 70 70 69 68 67 67 66 66 65 64
86 86 86 85 85 84 84 84 83 83 82 81 81 82 81 81 80 79 78 78 77 77 77 77 77 77 78 78 79 79 80 80 79 78 78 78 79 79 78 77 76 77 77 77 76 75 74 74 75 76 76 75 75 74 73 72 72 72 71 71 70 70 69 69 69 68 67 67 66 66 65 66 66 67 67 67 67 66 65 64 64 64 63 62 62
83 84 83 83 82 82 82 81 81 80 80 79 79 79 79 79 78 76 75 75 74 74 73 73 73 74 74 76 77 77 76 76 76 75 74 74 74 74 74 73 72 72 73 74 73 72 71 71 71 71 71 71 71 70 69 69 69 68 68 68 67 67 66 65 65 64 64 64 63 63 63 63 64 64 64 64 64 63 62 62 61 61 60 60 60
81 81 81 80 80 80 79 79 78 78 77 76 76 76 76 76 76 75 73 72 71 71 71 70 70 70 71 72 74 74 74 73 72 71 71 70 70 70 70 69 68 67 69 71 70 68 68 68 68 67 67 67 67 66 66 65 65 65 65 64 64 63 63 62 61 60 60 60 61 61 61 61 61 61 61 61 61 60 59 59 59 59 58 58 58
78 77 77 77 76 76 75 75 74 74 73 73 73 72 72 71 72 72 71 69 68 67 68 68 68 67 68 69 70 72 72 70 68 67 67 66 66 66 66 64 63 63 66 68 67 65 65 64 64 63 63 63 63 62 62 62 62 62 62 61 60 60 60 59 58 57 57 58 58 58 58 58 58 58 57 58 58 57 57 57 56 56 56 55 56
75 74 74 73 73 73 72 72 71 70 70 69 69 69 68 68 68 68 68 68 66 64 63 64 64 65 65 66 67 68 68 67 65 64 63 63 64 63 61 60 60 61 63 64 64 62 61 61 60 60 60 60 59 59 59 59 59 58 58 58 57 57 56 55 55 54 55 55 55 55 55 55 55 54 54 55 55 54 54 54 53 53 53 53 53
73 72 71 71 70 70 70 69 69 68 68 68 67 66 66 65 65 65 65 65 64 62 60 59 60 61 62 62 63 64 64 63 62 61 60 60 60 60 58 57 58 59 60 61 60 59 57 57 57 56 56 56 57 56 56 56 56 55 55 55 54 53 53 52 52 52 53 53 53 52 52 52 51 51 52 52 52 51 51 50 50 50 50 50 50
70 70 69 69 69 68 68 67 67 67 67 66 66 65 64 63 62 62 61 61 61 60 58 57 56 57 57 58 59 60 60 60 59 58 57 57 56 55 54 54 55 56 56 57 57 55 53 53 53 53 53 54 54 53 53 53 53 52 52 51 51 50 50 49 50 51 51 50 50 49 49 48 48 49 49 49 49 48 48 47 47 47 47 47 47
68 67 67 66 66 65 65 64 64 63 63 63 63 63 62 61 60 60 59 58 58 57 56 54 53 53 53 54 55 56 56 57 56 55 54 53 52 51 51 51 52 53 53 53 52 51 50 50 50 50 50 51 51 51 50 50 49 49 48 48 48 48 47 47 48 48 48 47 46 46 46 46 46 46 46 46 46 45 45 44 44 44 44 44 44
65 64 63 62 62 61 60 60 59 59 59 58 58 59 59 58 58 57 57 56 56 54 53 52 51 51 50 51 52 52 52 52 53 52 51 49 48 48 48 48 49 49 49 49 48 48 47 47 48 48 48 48 48 47 47 46 46 46 46 45 45 45 45 46 46 46 44 43 43 43 43 43 43 43 44 44 43 43 43 42 42 42 42 43 43
62 60 59 59 58 58 57 57 56 56 55 55 55 55 55 55 55 54 54 54 53 52 51 50 49 48 48 48 49 49 49 48 48 48 48 47 46 45 45 45 45 45 45 45 45 45 45 45 46 46 45 45 44 44 43 43 43 43 43 42 42 43 44 44 43 42 41 40 40 41 41 41 41 41 42 41 41 41 40 40 40 40 40 41 41
60 59 58 57 57 56 56 55 55 54 53 53 52 52 51 51 51 51 50 50 50 49 48 47 47 46 46 46 46 45 45 44 44 45 45 45 44 43 42 42 41 41 42 42 42 42 42 42 42 42 41 41 41 41 41 41 40 40 40 40 40 40 41 40 39 38 37 38 38 39 39 39 39 39 39 39 39 38 38 38 38 38 38 38 38
59 58 57 56 56 55 55 54 53 53 52 51 50 50 49 49 48 48 47 47 46 46 45 44 44 43 43 43 43 43 42 41 41 42 42 42 41 41 39 38 37 38 39 40 39 39 39 39 38 38 38 38 39 39 38 38 37 37 37 37 37 38 38 37 36 35 35 36 36 37 37 37 36 37 37 36 36 35 35 35 35 35 35 36 36
58 57 55 54 54 53 53 52 52 51 51 50 49 48 47 47 46 45 45 44 44 43 42 41 41 40 40 40 40 40 39 39 39 38 38 38 38 37 36 35 35 35 36 37 36 36 35 35 35 35 35 35 36 36 36 35 34 34 35 35 35 34 35 34 33 33 32 33 34 34 34 34 34 34 34 34 33 33 33 33 33 33 33 34 34
55 54 53 52 51 50 50 49 49 48 48 48 47 46 45 44 43 43 42 41 41 40 40 39 38 38 37 37 37 37 36 36 35 35 35 35 35 35 34 33 32 32 32 33 33 33 32 31 32 32 32 32 33 33 33 32 32 32 32 31 31 31 31 31 31 30 30 31 32 32 32 31 31 32 31 31 30 30 30 30 31 31 31 32 32
52 51 51 50 49 48 47 47 46 45 44 44 43 42 41 41 40 39 39 39 38 37 37 36 35 35 34 34 34 34 33 33 32 32 32 32 32 31 31 30 29 29 30 30 31 30 29 28 28 29 29 29 30 30 30 29 29 28 28 28 28 28 29 29 28 28 28 29 29 29 29 29 29 29 29 28 28 28 28 28 29 29 29 30 30
50 50 49 48 47 46 45 45 44 42 41 40 39 39 38 37 37 37 36 36 35 35 34 33 33 32 31 31 31 30 30 30 29 29 29 29 29 29 28 28 27 27 27 27 27 27 26 26 26 26 26 26 26 27 27 26 25 25 25 25 26 26 27 26 26 26 26 27 27 27 27 27 27 27 26 26 26 26 26 27 27 27 28 28 28
48 48 47 46 45 44 43 42 42 41 40 39 38 37 36 35 35 34 34 33 32 32 31 30 30 29 28 28 27 27 27 26 26 26 26 26 26 26 25 25 25 24 24 24 24 24 23 23 23 23 23 23 23 23 23 23 23 22 23 23 24 24 25 25 24 24 24 25 25 25 24 24 24 24 24 24 24 24 25 25 26 26 27 27 27
46 46 45 44 43 42 41 40 40 39 38 38 37 36 35 34 33 32 31 31 30 29 29 28 27 26 25 25 24 24 24 24 24 23 23 23 23 23 22 22 22 22 21 21 20 20 20 20 20 20 20 20 20 20 20 21 20 21 21 22 23 23 22 22 22 22 22 22 22 22 22 22 22 22 22 22 22 23 23 24 25 25 26 26 26
44 44 43 42 41 41 40 39 38 37 36 35 35 34 33 32 31 30 29 28 28 27 26 25 25 24 23 22 21 21 21 21 21 20 20 20 20 19 19 19 19 19 18 17 17 17 17 18 18 17 17 17 17 18 18 19 19 19 20 20 20 20 19 19 19 19 20 20 20 20 20 20 20 21 21 21 21 22 22 23 24 24 25 25 25
42 42 41 41 40 39 38 37 36 35 34 33 32 31 30 29 28 27 27 26 25 25 24 23 22 21 20 20 19 18 18 18 18 18 17 17 17 17 16 16 16 15 15 15 14 14 15 15 15 15 15 15 15 16 16 17 17 17 18 18 17 17 16 17 17 17 17 18 18 18 18 19 19 19 19 20 20 21 22 22 23 23 23 24 24
41 40 40 39 38 37 36 35 34 33 32 31 30 29 28 27 26 25 25 24 23 23 22 21 20 20 19 18 17 17 16 16 15 15 15 15 14 14 14 14 13 13 13 12 12 12 13 13 14 13 13 13 14 14 14 14 15 15 15 15 14 14 14 14 15 15 15 15 16 16 17 17 17 18 18 19 20 20 21 21 21 22 22 22 23
40 39 38 37 36 35 34 33 32 31 30 29 28 28 26 25 24 24 23 22 22 21 21 20 19 18 18 17 16 15 15 14 14 14 13 13 12 12 12 12 12 12 11 11 10 10 11 12 12 12 11 11 12 12 12 12 12 12 12 12 12 11 12 12 13 13 13 14 14 14 15 15 16 16 17 18 18 19 19 20 20 20 21 21 21
Wind_Direction
272 272 272 272 273 273 273 273 273 273 273 273 273 273 273 273 274 274 274 274 275 275 275 275 275 275 276 276 276 276 276 276 277 277 277 277 277 277 277 278 278 278 278 278 278 278 278 278 278 277 277 277 277 277 277 276 276 276 276 275 275 275 275 275 274 274 272 272 272 271 271 271 271 271 270 270 269 269 268 268 268 267 267 267 267
273 273 273 273 273 273 274 274 274 274 274 274 274 274 274 274 274 274 275 275 275 275 275 276 276 276 276 276 276 276 276 276 276 276 277 277 277 277 277 277 277 278 278 278 278 278 278 278 277 277 277 277 276 276 276 276 276 275 275 275 275 274 274 274 274 273 272 271 271 271 271 271 271 271 270 270 270 269 268 268 267 267 266 266 266
273 273 273 274 274 274 274 274 274 274 274 275 275 275 275 275 275 275 275 275 275 275 275 275 276 276 276 276 276 276 276 276 276 276 276 276 276 276 276 276 277 277 277 277 277 277 277 277 277 276 276 276 276 276 276 275 275 275 275 275 275 275 275 274 274 274 274 273 272 271 271 271 271 271 270 270 270 269 269 268 268 267 266 266 265
274 274 274 274 275 275 275 275 275 275 275 275 275 275 275 275 274 274 274 274 275 275 275 275 275 275 275 276 276 276 276 276 276 276 276 276 276 276 276 276 276 276 276 276 276 276 276 276 276 276 276 276 276 276 276 276 275 275 275 275 275 275 275 275 275 275 275 274 273 272 271 271 270 270 270 269 269 269 268 268 267 267 266 265 265
275 275 275 275 275 275 276 276 276 276 276 276 276 276 276 276 275 275 275 274 274 274 274 274 274 274 275 275 275 275 275 275 275 275 275 275 275 275 275 276 276 276 276 276 276 276 276 276 276 276 276 276 276 276 276 276 275 275 275 275 275 275 274 274 274 275 275 274 274 273 272 271 271 270 270 269 269 268 268 268 267 267 266 265 265
275 276 276 276 276 276 276 276 276 277 277 277 276 276 276 276 276 276 275 275 275 275 275 274 274 274 274 274 274 275 275 275 275 275 275 275 275 275 276 276 276 276 276 276 276 276 276 276 277 277 277 277 277 276 276 276 276 276 275 275 275 275 275 274 274 274 274 274 274 273 272 272 271 271 271 270 270 269 269 268 268 267 267 266 265
277 277 277 277 277 277 277 277 277 277 277 277 276 276 276 276 276 276 275 275 275 275 275 275 275 275 275 275 275 275 275 275 275 275 275 275 275 276 276 276 276 276 276 276 276 277 277 277 277 277 277 277 277 276 276 276 276 276 276 276 276 276 275 275 275 275 274 274 274 274 273 272 272 271 271 271 271 270 270 269 268 268 268 267 267
278 277 277 277 277 277 277 276 276 276 276 276 276 276 276 276 276 275 275 275 275 275 275 275 275 275 275 275 275 275 275 275 275 275 275 275 276 276 276 276 276 276 276 276 277 277 277 277 277 277 277 277 277 277 277 277 277 277 277 277 277 277 276 276 276 276 276 275 275 275 274 274 273 273 272 272 272 271 271 270 269 269 268 268 267
278 278 278 278 277 277 277 277 277 277 277 277 277 277 277 277 277 277 277 277 277 277 277 277 277 277 277 277 277 277 277 277 277 277 277 277 277 277 277 277 277 277 278 278 278 278 278 278 278 278 278 278 278 278 278 278 278 278 278 278 278 277 277 277 277 277 277 276 276 276 275 275 274 274 273 272 272 271 271 270 270 269 269 268 267
278 278 278 278 277 277 277 277 277 277 277 277 277 278 278 278 278 278 278 278 278 278 278 278 278 278 278 278 278 278 278 278 278 278 278 278 278 278 278 278 278 278 278 278 278 278 279 278 278 278 278 278 278 278 278 278 278 278 278 277 277 277 277 277 276 276 277 276 276 276 275 275 274 274 273 272 272 271 271 270 270 269 269 268 267
278 277 277 277 277 277 277 277 277 277 277 277 277 277 278 278 278 278 279 279 279 279 279 279 279 278 278 278 278 278 278 278 278 278 278 278 278 278 278 278 278 278 278 278 278 278 278 278 278 278 278 278 278 278 278 277 277 277 277 277 277 276 276 276 276 276 276 276 275 275 275 274 274 273 272 272 272 271 270 270 270 269 269 268 267
277 277 277 277 277 277 277 277 277 277 277 277 277 277 277 277 278 278 278 278 279 279 279 279 279 279 279 279 278 278 278 278 278 277 277 277 277 277 277 277 277 277 277 277 277 277 277 277 277 277 277 277 277 277 277 277 277 277 276 276 276 276 276 276 276 275 275 275 275 274 274 274 274 273 272 272 271 271 270 269 269 269 269 268 268
277 277 277 277 278 277 277 277 277 277 277 277 277 277 277 277 277 278 278 278 278 278 278 278 278 278 278 278 278 278 278 278 278 277 277 277 277 277 276 276 276 276 276 276 276 276 276 276 276 276 276 276 277 277 277 277 276 276 276 276 275 275 276 276 276 276 275 275 274 274 274 274 273 273 272 272 271 270 270 269 269 269 269 269 269
278 278 278 278 278 278 278 278 278 278 278 278 279 279 279 279 278 278 278 278 278 278 278 278 278 278 278 278 278 278 278 278 278 278 277 277 277 277 277 277 277 277 276 276 276 276 276 276 276 276 276 276 276 276 276 276 276 276 275 275 276 276 276 276 276 276 276 275 275 274 274 273 273 272 272 271 271 271 270 270 269 269 269 269 269
279 279 279 279 279 279 279 279 279 280 280 280 280 280 279 279 279 279 279 278 278 278 278 278 278 278 278 277 277 277 277 277 277 277 277 277 277 277 277 277 277 277 277 277 276 276 276 276 276 276 276 276 276 276 276 276 276 275 276 276 276 276 277 277 277 277 276 276 275 274 274 273 272 272 271 271 271 271 271 270 270 269 269 269 268
282 281 281 281 281 281 281 280 280 280 280 280 280 279 279 279 279 279 279 279 278 278 278 278 278 278 277 277 277 277 277 277 277 277 276 276 276 276 276 276 276 276 276 276 276 276 276 276 276 276 276 276 276 276 276 275 275 275 276 276 276 276 277 277 277 277 276 275 275 275 274 273 273 272 272 271 271 271 270 270 269 269 268 268 268
283 283 283 283 282 282 282 282 282 281 281 281 281 281 281 281 280 280 280 280 280 279 279 279 279 279 278 278 278 278 278 277 277 277 277 277 277 277 277 277 277 277 277 276 276 276 276 276 276 276 276 276 276 276 275 275 275 275 275 275 276 276 277 276 275 275 275 275 275 275 274 274 273 272 272 271 270 270 270 269 269 269 269 268 268
285 285 285 285 285 284 284 284 284 283 283 283 283 283 282 282 282 281 281 281 281 280 280 280 279 279 279 279 278 278 278 278 278 278 277 277 277 277 277 277 277 277 277 277 277 277 277 277 277 277 276 276 276 275 275 275 275 275 275 275 276 276 275 274 274 274 275 275 275 274 274 273 273 273 272 271 271 270 269 269 268 268 268 269 269
286 286 286 286 286 286 285 285 285 284 284 283 283 283 282 282 282 281 281 281 280 280 280 280 279 279 279 279 278 278 278 278 278 277 277 277 277 277 277 277 277 277 277 277 277 277 277 277 277 277 276 276 276 276 276 275 275 275 276 276 275 274 273 273 274 275 274 274 274 274 274 274 273 272 272 271 271 271 270 270 269 268 267 267 267
286 286 286 286 286 286 285 285 285 284 284 284 283 283 282 282 281 281 281 281 280 280 280 279 279 279 279 279 278 278 278 277 277 277 277 277 277 277 278 277 277 277 277 277 277 277 277 277 277 277 276 276 276 276 275 275 275 276 277 276 274 273 273 274 274 274 273 273 274 274 274 274 273 272 272 272 272 272 271 271 270 269 267 266 265
287 287 287 287 287 286 286 286 285 285 285 284 284 283 283 282 282 281 281 281 280 280 280 279 279 279 278 278 278 278 278 277 277 277 277 277 277 277 278 277 277 277 277 277 277 277 276 276 276 276 276 276 276 276 275 276 276 276 276 275 274 275 275 274 274 274 274 273 273 273 273 273 273 273 273 273 273 272 272 272 272 270 268 266 265
288 288 287 287 287 286 286 286 285 285 285 284 284 283 283 282 282 281 281 280 280 280 279 279 279 278 278 278 278 277 277 277 277 277 277 277 277 278 278 278 278 277 277 277 277 276 276 276 277 277 277 276 276 276 276 276 276 276 275 275 275 276 275 275 274 274 274 274 273 273 273 273 273 274 274 274 274 273 273 273 272 271 269 268 266
288 288 287 287 287 286 286 286 285 285 285 284 284 283 283 282 282 282 281 281 280 280 280 279 279 279 278 278 278 277 277 277 277 277 277 277 277 278 278 278 278 278 277 277 277 276 277 277 277 277 276 276 276 276 276 276 276 276 276 276 276 276 275 275 275 274 274 274 273 273 273 273 273 274 274 274 274 274 273 273 272 271 269 268 267
288 288 288 287 287 287 287 286 286 285 285 285 284 284 283 283 283 282 282 281 281 281 280 280 279 279 279 278 278 278 277 277 277 277 277 277 277 278 278 278 277 277 277 276 276 276 277 277 277 276 276 276 276 276 276 275 275 276 276 276 276 275 275 275 274 274 274 273 273 273 273 273 273 273 273 273 273 273 273 272 271 270 269 268 267
289 288 288 288 288 287 287 287 286 286 286 285 285 284 284 284 283 283 282 282 282 281 281 280 280 279 279 278 278 278 278 277 277 277 277 277 277 277 277 277 277 277 276 276 276 276 276 276 276 276 276 276 276 275 275 275 275 275 275 276 276 275 275 274 274 273 273 273 273 273 273 273 273 273 272 272 272 272 271 271 270 270 269 268 267
290 289 289 289 288 288 288 287 287 286 286 285 285 285 284 284 284 283 283 282 282 281 281 280 280 280 279 279 278 278 278 278 277 277 277 277 277 277 277 277 277 277 276 276 276 276 276 276 276 276 276 275 275 275 275 275 275 275 275 275 275 275 274 274 274 273 273 273 273 273 272 272 272 272 272 271 271 270 270 270 270 269 268 268 267
291 290 290 290 289 289 288 288 287 287 287 286 285 285 284 284 284 283 283 283 282 282 281 281 280 280 279 279 279 278 278 278 278 278 277 277 277 277 277 277 277 277 277 277 276 276 276 277 276 276 275 275 275 275 275 275 275 276 276 275 275 274 274 274 273 273 273 272 273 273 273 272 272 271 271 270 270 269 269 269 269 268 268 267 267
292 292 291 291 290 290 289 289 288 288 288 287 287 286 285 285 284 284 283 283 283 282 282 281 281 280 280 279 279 278 278 278 278 278 278 277 277 277 277 277 277 277 277 277 277 277 277 276 276 275 275 275 275 275 275 276 276 276 275 275 274 274 274 273 273 273 273 272 272 272 272 272 271 270 270 269 269 269 269 268 268 268 267 267 266
293 293 292 292 291 291 291 290 290 289 289 289 288 287 287 286 285 285 284 284 283 283 282 282 281 281 280 279 279 278 278 278 278 278 277 277 277 277 277 277 278 278 278 277 277 277 276 276 275 275 275 275 276 276 276 276 276 276 275 275 274 273 273 273 273 273 272 272 272 271 271 271 270 269 269 268 268 268 268 268 267 267 267 266 265
295 294 294 293 293 293 292 292 291 291 290 290 289 289 288 287 286 286 285 285 284 283 282 282 282 281 280 280 279 278 278 278 278 278 278 277 278 278 278 278 278 278 278 278 278 277 276 275 275 275 276 276 276 276 276 276 276 275 275 274 274 273 273 272 272 272 272 272 271 270 270 269 269 268 268 268 268 268 267 267 267 266 266 265 264
296 296 296 295 295 294 294 293 293 292 292 291 290 290 289 289 288 287 286 286 285 284 283 282 282 281 281 280 279 279 278 278 278 279 278 278 278 278 279 278 278 278 278 278 277 276 276 276 275 275 275 275 276 276 276 275 275 274 274 274 273 273 273 272 272 272 271 271 270 269 268 268 267 267 267 267 267 267 267 266 266 265 264 264 263
297 297 296 296 295 295 294 294 293 293 292 292 291 290 290 289 289 288 288 287 286 285 285 284 283 282 281 281 280 280 279 279 279 279 279 279 279 278 278 278 278 278 277 277 276 276 275 275 275 275 275 275 275 275 275 274 274 274 273 273 273 273 272 272 271 271 271 270 269 268 267 266 266 266 266 266 266 266 265 265 264 264 263 262 261
298 297 297 296 296 295 295 294 293 293 292 292 291 290 290 289 289 289 288 287 286 286 285 285 284 283 282 281 281 281 281 281 280 280 280 279 279 278 278 278 278 277 276 276 276 276 275 275 275 275 275 275 274 274 274 273 273 273 273 273 272 272 272 272 271 271 270 269 268 267 266 266 265 265 265 265 265 264 264 263 263 262 262 261 260
299 299 298 298 297 296 296 295 295 294 293 293 292 291 291 290 290 289 289 288 287 286 285 285 284 283 282 282 281 281 282 282 282 281 280 280 279 279 279 279 278 276 276 276 276 276 276 276 276 276 275 275 274 274 273 273 273 273 272 272 272 272 272 271 271 270 269 268 267 266 266 266 265 265 264 264 264 263 263 262 262 261 260 260 259
301 301 300 300 299 299 298 298 297 296 296 295 294 293 292 292 291 290 290 289 289 288 286 285 284 284 283 282 282 282 282 282 282 281 281 280 279 280 280 279 277 276 276 276 276 276 277 277 276 276 275 275 274 273 273 273 272 272 272 272 272 272 271 271 270 269 268 267 267 266 266 266 265 265 264 263 263 263 262 261 261 260 259 259 258
303 303 302 302 301 300 300 299 298 298 297 297 296 295 295 294 293 292 291 290 290 289 288 287 286 284 284 283 283 282 282 282 282 281 281 280 280 281 280 279 277 276 276 276 277 277 277 276 276 275 274 274 273 273 272 272 272 272 272 272 272 271 271 270 269 268 267 267 267 267 266 266 265 264 263 263 263 262 261 260 260 259 258 258 257
304 304 303 302 301 300 300 299 298 298 297 297 297 296 296 295 294 294 293 292 291 291 290 289 287 286 285 284 283 283 283 283 282 282 282 282 281 281 280 278 277 277 276 277 278 278 277 276 275 274 273 272 272 272 272 273 273 273 273 272 271 270 270 269 268 267 267 267 267 267 266 265 264 263 262 262 261 261 260 259 258 257 256 256 255
304 303 302 302 301 301 300 299 299 298 298 297 297 296 296 296 296 295 294 294 293 292 291 290 289 288 286 285 284 283 283 284 284 284 283 283 282 280 279 278 277 277 277 277 277 277 275 274 273 272 272 272 273 273 273 273 272 272 271 271 270 270 269 268 267 267 267 267 267 266 265 263 262 261 261 260 259 259 258 257 256 255 254 253 253
305 305 304 304 304 303 303 302 301 300 300 299 298 298 297 296 296 296 295 294 294 293 293 292 291 290 288 286 286 285 285 285 285 285 284 283 282 280 279 278 278 278 278 277 276 275 274 273 272 272 273 273 273 273 272 271 271 270 270 270 269 268 268 267 268 268 268 267 265 264 263 261 260 260 259 259 258 257 257 256 254 253 252 252 251
309 309 308 308 307 307 306 305 304 303 302 302 301 300 299 298 297 296 296 295 294 294 294 293 292 291 289 288 287 287 286 286 285 284 284 283 282 281 281 281 280 279 278 276 275 274 274 273 273 274 274 273 272 271 270 270 270 270 269 269 268 268 268 268 268 267 266 265 263 262 261 260 260 259 258 258 257 257 256 255 253 252 251 251 250
312 312 311 310 310 309 308 307 307 306 305 304 303 303 301 300 300 299 298 297 296 295 294 294 293 292 291 290 289 288 287 286 285 284 284 283 283 283 283 282 281 279 278 277 276 275 274 274 274 273 272 271 271 270 270 270 270 269 269 269 268 268 268 268 267 266 265 263 262 261 261 260 259 258 258 257 257 256 254 253 252 251 250 249 249
313 313 312 312 311 310 310 309 309 308 307 306 306 305 303 302 301 300 299 298 297 297 296 295 293 292 292 291 290 289 288 287 286 286 285 285 284 284 283 282 281 280 279 278 277 276 275 274 273 271 270 270 270 271 271 271 270 269 269 269 269 268 268 268 267 266 264 263 262 260 260 259 259 258 258 257 256 255 253 252 251 250 249 248 247
314 313 313 313 312 311 311 310 309 309 308 307 306 305 304 304 303 301 300 299 298 298 297 296 294 293 292 292 291 290 289 289 288 287 286 285 284 284 284 283 282 280 278 277 277 276 275 274 272 271 270 270 270 270 271 271 270 270 270 270 270 269 268 267 266 264 262 261 260 260 259 258 258 257 257 256 255 253 252 250 249 248 247 246 246
315 315 315 314 314 313 313 312 311 310 309 308 307 306 306 305 304 303 302 301 300 299 298 296 295 294 293 292 291 291 290 289 289 288 286 285 285 284 284 283 281 279 277 277 276 277 276 275 273 272 270 270 270 270 271 271 271 271 271 270 269 267 266 265 264 263 261 260 259 259 258 257 256 256 255 254 252 251 249 248 247 246 246 245 244
318 317 317 317 316 316 315 315 314 314 313 312 311 310 309 308 307 306 305 304 303 301 300 298 297 296 295 294 293 292 291 291 290 289 287 286 284 284 283 282 281 279 278 277 277 277 276 275 273 271 271 270 270 270 271 272 271 270 269 268 266 265 265 264 263 262 260 259 258 258 257 256 255 255 254 253 251 249 248 247 246 246 245 244 243
320 319 319 319 319 319 318 318 318 318 317 316 315 314 313 312 310 309 308 307 306 305 304 302 300 299 297 296 295 294 293 292 291 289 288 286 285 285 284 283 282 281 279 278 278 277 276 274 273 272 272 271 271 270 271 271 270 269 267 265 264 263 263 262 262 260 259 258 258 258 257 256 255 254 253 251 249 248 246 245 245 245 244 243 242
321 321 321 321 321 322 322 322 321 321 320 319 318 317 316 315 314 313 312 311 310 309 308 307 306 304 302 300 299 298 296 294 293 291 290 288 287 286 285 284 283 281 280 279 278 277 275 274 273 273 272 272 271 269 269 268 267 265 263 262 262 262 262 262 261 260 259 258 257 257 256 254 253 251 250 248 247 245 244 244 243 243 243 242 241
324 324 324 324 325 325 325 324 323 322 321 321 320 319 319 318 318 317 316 315 314 313 312 311 310 309 307 306 304 302 300 298 295 294 292 291 290 289 288 286 285 283 282 280 279 276 275 274 273 272 271 270 268 266 265 264 263 262 261 262 262 261 261 260 259 258 256 255 255 254 252 251 249 248 246 245 243 242 242 241 241 241 241 240 239
327 327 328 328 328 328 327 326 325 325 324 323 323 323 323 323 322 321 320 319 318 317 316 315 314 313 312 311 309 307 304 302 300 298 297 295 294 293 291 289 287 285 283 281 279 276 274 272 271 270 267 266 264 263 263 262 262 261 261 261 261 260 259 258 257 256 255 254 252 251 249 248 246 245 243 242 241 240 239 239 238 238 238 238 237
331 331 331 331 330 329 329 328 328 328 327 327 327 328 328 327 327 326 325 324 323 322 321 320 320 320 319 317 315 313 311 308 306 304 302 300 298 295 293 291 289 286 284 281 277 274 271 270 270 269 267 265 264 263 263 262 261 261 261 262 262 260 258 256 255 253 252 250 248 246 245 244 243 241 240 239 238 238 237 237 237 236 236 235 235
334 334 333 333 332 332 332 332 332 332 331 331 332 332 332 332 332 332 331 330 329 328 327 327 327 327 326 325 323 320 318 316 313 310 308 305 302 299 296 293 290 288 286 283 279 275 273 272 272 272 271 269 267 267 266 265 264 263 263 263 261 256 253 250 249 247 245 244 243 242 240 239 238 237 236 236 236 236 235 235 234 234 233 232 232